Starlink 30333

operational
NORAD ID: 57702 Int'l Des: 2023-129 Owner: SPXS Country: US Constellation: starlink
LEOCIRCULAR

About Starlink 30333

Description loading...

Live Position

Loading 3D Globe...

Upcoming Passes

Altitude History

Altitude vs Time

uPlot chart will show altitude changes over time

Two-Line Element Set

1 57702U 23129E 25350.01313004 .00000526 00000-0 53994-4 0 9992
2 57702 43.0029 215.2839 0001076 268.1308 91.9411 15.02535559128065
Epoch: Dec 16, 2025 • Age: 33 hours

Current Status

Altitude 564.7 km
Velocity 7.58 km/s
Sub-Earth Point -24.85°S, 52.91°W
Launch Date Aug 27, 2023
Age 2.3 years
Type internet

Technical Details

Classification Payload
Mass 730.00 kg
Dry Mass 700.00 kg
Total Mass 730.00 kg
Length 0.30 m
Diameter 4.10 m
Span 29.00 m
Shape Box + pan
Manufacturer SPXS
Bus Type Starlink V2M
Phase Status In Orbit
Owner/State SPXS/US

Large Constellations

Loading constellations...